[[{"header":{"parameterUnit":"m.s-1","parameterCategory":1,"la1":30.2991,"la2":30.254,"lo1":-89.0895,"lo2":-89.0444,"dy":0.0017,"dx":0.0017,"nx":28,"ny":28,"refTime":"2024-05-24T09:00:00:Z","depth":0,"parameterNumber":2,"parameterNumberName":"U-component_of_WINDS"},"data":[0,0,0,0,0,0,0,0,0,0,0,0,0,0,0,0,0,0,0,0,0,0,0,0,0,0,0,0,0,0,0,0,0,0,0,0,0,0,0,0,0,0,0,0,0,0,0,0,0,0,0,0,0,0,0,0,0,0,1.2661,1.2662,0,1.2765,1.2766,1.2768,1.2779,1.2778,1.2777,1.2776,1.2882,1.2886,1.289,0,0,0,0,0,0,0,0,0,0,0,0,0,1.2471,1.2475,1.2661,1.2662,1.2664,1.2765,1.2766,1.2768,1.278,1.2778,1.2777,1.2776,1.2881,1.2886,1.289,0,0,0,0,0,0,0,0,0,0,0,0,0,1.2562,1.2476,1.2661,1.2682,1.2685,1.2765,1.2766,1.2768,1.278,1.2778,1.2777,1.2775,1.288,1.2885,1.2891,1.2957,0,0,1.2908,1.291,0,0,0,0,0,0,0,0,1.2557,1.2569,1.2677,1.2681,1.2684,1.2758,1.2738,1.2831,1.278,1.2744,1.2776,1.2775,1.2842,1.2851,1.2874,1.2962,1.2966,1.2909,1.2912,1.2914,1.2916,0,0,0,0,0,0,0,1.2551,1.2565,1.2702,1.2679,1.2683,1.2685,1.2697,1.2756,1.28,1.2747,1.2748,1.276,1.2844,1.2868,1.2876,1.2968,1.2908,1.2913,1.2917,1.2919,1.3114,1.3115,0,0,0,0,0,0,1.2541,1.2559,1.2699,1.2705,1.2615,1.269,1.2703,1.2736,1.28,1.2808,1.2761,1.276,1.2859,1.287,1.288,1.296,1.2914,1.292,1.2923,1.3112,1.3114,1.3116,0,0,0,0,0,0,1.2537,1.2553,1.2695,1.2633,1.2651,1.2695,1.2732,1.2739,1.2763,1.2811,1.2819,1.2778,1.2858,1.2872,1.2937,1.2964,1.2922,1.2927,1.311,1.3112,1.3115,1.3122,0,0,0,0,0,0,1.2531,1.2551,1.2577,1.2633,1.2654,1.2751,1.2734,1.2742,1.2773,1.2773,1.2829,1.2837,1.2858,1.2929,1.2943,1.2971,1.2932,1.3107,1.3111,1.3114,1.312,1.3125,1.3129,0,0,0,0,0,1.2524,1.2576,1.2579,1.2596,1.2688,1.2752,1.2764,1.2788,1.2775,1.2801,1.2831,1.2835,1.2959,1.2935,1.2951,1.2982,1.3106,1.311,1.3114,1.3118,1.3124,1.3129,0,0,0,0,0,0,1.2522,1.2583,1.2587,1.2659,1.27,1.2754,1.2788,1.2794,1.284,1.2838,1.2866,1.2878,1.2942,1.2969,1.2941,1.3048,1.3031,1.3038,1.3029,1.3035,1.304,1.3031,1.2937,0,0,0,0,0,1.253,1.2577,1.2628,1.2686,1.2707,1.2744,1.2773,1.2788,1.2832,1.2849,1.2885,1.2927,1.2975,1.3007,1.3054,1.3124,1.3136,1.3153,1.3157,1.3161,1.3167,1.3204,1.3212,1.3129,1.3129,1.3129,0,0,1.2546,1.2586,1.2614,1.2687,1.2721,1.2769,1.2759,1.281,1.2846,1.2857,1.2921,1.2948,1.2997,1.3064,1.3096,1.3088,1.3192,1.3166,1.3169,1.3173,1.3209,1.3217,1.3224,1.3132,1.3131,1.3131,0,0,1.2601,1.2636,1.2687,1.2721,1.2773,1.2797,1.2809,1.2862,1.2881,1.2945,1.2954,1.2996,1.308,1.3114,1.3142,1.3208,1.3212,1.3223,1.3247,1.3283,1.329,1.3296,1.3318,1.3326,1.3229,1.3229,1.3229,0,1.2615,1.2688,1.2713,1.2764,1.2795,1.2807,1.2859,1.2891,1.2955,1.2976,1.2966,1.307,1.3104,1.3179,1.3195,1.3218,1.3232,1.3216,1.3287,1.3293,1.3299,1.3321,1.3329,1.3229,1.3229,1.3229,1.3229,0,1.2702,1.2753,1.2788,1.2849,1.2884,1.2935,1.2967,1.3,1.3011,1.3036,1.31,1.3141,1.3196,1.3215,1.3227,1.3292,1.3286,1.3282,1.3265,1.3308,1.3328,1.3337,1.3231,1.323,1.323,1.323,0,0,1.2758,1.2832,1.2845,1.2872,1.2929,1.2968,1.3019,1.3073,1.31,1.3144,1.3187,1.3256,1.3252,1.3284,1.33,1.3332,1.338,1.3324,1.3326,1.3332,1.3453,1.3455,1.3464,1.3384,1.3385,1.3387,1.3448,0,1.2819,1.2911,1.2934,1.3012,1.3058,1.307,1.3114,1.3153,1.3178,1.322,1.3247,1.3295,1.3287,1.3306,1.3338,1.3368,1.3405,1.3364,1.3423,1.3425,1.341,1.3475,1.3478,1.3534,1.3457,1.3458,1.3459,0,1.2902,1.2946,1.3029,1.3079,1.3099,1.3139,1.3189,1.323,1.3274,1.329,1.3325,1.3337,1.339,1.337,1.3443,1.3414,1.344,1.3458,1.3461,1.3467,1.3444,1.3482,1.3552,1.356,1.3472,1.3471,1.347,0,1.2933,1.3014,1.3074,1.3097,1.3157,1.3184,1.321,1.3253,1.3284,1.3328,1.3348,1.3398,1.3425,1.3463,1.3488,1.3471,1.3558,1.3541,1.3571,1.357,1.3588,1.3587,1.3663,1.3606,1.3606,1.3606,1.3606,0,1.2997,1.3047,1.3088,1.3125,1.318,1.3206,1.326,1.3287,1.3325,1.3366,1.3379,1.3418,1.3449,1.3491,1.3511,1.3568,1.358,1.3593,1.3598,1.3592,1.359,1.3608,1.3605,1.3608,1.3608,1.3607,1.3607,0,1.3042,1.3072,1.3137,1.3188,1.3202,1.3241,1.3284,1.332,1.3344,1.3396,1.341,1.3448,1.3498,1.3527,1.3591,1.3604,1.3666,1.367,1.3651,1.3653,1.3682,1.3678,1.3772,1.3785,1.372,1.3721,1.3721,0,1.3081,1.3119,1.3174,1.3203,1.3229,1.3275,1.3306,1.3333,1.3365,1.3417,1.3446,1.3497,1.354,1.362,1.3653,1.3701,1.3705,1.3734,1.3712,1.3704,1.3704,1.3701,1.3705,1.3738,1.3739,1.3739,1.3739,0,1.3146,1.3159,1.3203,1.3252,1.3289,1.3329,1.3369,1.3391,1.3424,1.3459,1.3511,1.3544,1.3608,1.3658,1.3709,1.3736,1.3743,1.3746,1.3756,1.3749,1.3737,1.3743,1.3661,1.3744,1.3743,1.3743,1.3743,1.3743,1.3188,1.3223,1.3266,1.3315,1.3348,1.3384,1.342,1.3448,1.3492,1.3546,1.3559,1.3613,1.3656,1.3725,1.3752,1.3794,1.3789,1.3803,1.3806,1.3809,1.381,1.373,1.3804,1.3804,1.3804,1.3804,1.3804,0,1.3254,1.3282,1.3327,1.3382,1.3419,1.3423,1.3467,1.3498,1.3546,1.3585,1.3626,1.3684,1.3733,1.377,1.3819,1.3846,1.385,1.3858,1.3856,1.3861,1.3812,1.3798,1.3853,1.3853,1.3853,1.3853,1.3853,1.3853,1.3292,1.335,1.3367,1.344,1.3469,1.3522,1.3546,1.358,1.3611,1.3676,1.3716,1.374,1.3777,1.3829,1.3874,1.3883,1.39,1.3907,1.3917,1.387,1.3865,1.386,1.3847,1.3911,1.3911,1.3963,1.3963,1.3964]},{"header":{"parameterUnit":"m.s-1","parameterCategory":1,"la1":30.2991,"la2":30.254,"lo1":-89.0895,"lo2":-89.0444,"dy":0.0017,"dx":0.0017,"nx":28,"ny":28,"refTime":"2024-05-24T09:00:00:Z","depth":0,"parameterNumber":3,"parameterNumberName":"V-component_of_WINDS"},"data":[0,0,0,0,0,0,0,0,0,0,0,0,0,0,0,0,0,0,0,0,0,0,0,0,0,0,0,0,0,0,0,0,0,0,0,0,0,0,0,0,0,0,0,0,0,0,0,0,0,0,0,0,0,0,0,0,0,0,4.9118,4.9119,0,4.9211,4.9212,4.9213,4.9171,4.9169,4.9167,4.9165,4.9254,4.9259,4.9263,0,0,0,0,0,0,0,0,0,0,0,0,0,4.8897,4.8901,4.9118,4.9119,4.912,4.9211,4.9212,4.9213,4.9172,4.9169,4.9166,4.9164,4.9253,4.9258,4.9264,0,0,0,0,0,0,0,0,0,0,0,0,0,4.8992,4.8903,4.9118,4.911,4.9111,4.9211,4.9212,4.9214,4.9172,4.9169,4.9166,4.9162,4.9251,4.9258,4.9264,4.9375,0,0,4.9285,4.9288,0,0,0,0,0,0,0,0,4.8986,4.9,4.911,4.9111,4.9112,4.9176,4.9167,4.9268,4.9173,4.9149,4.9165,4.9161,4.9231,4.9239,4.9264,4.9379,4.9383,4.9286,4.929,4.9293,4.9295,0,0,0,0,0,0,0,4.898,4.8995,4.9154,4.9112,4.9113,4.91,4.911,4.9186,4.9208,4.9151,4.9148,4.916,4.923,4.9257,4.9266,4.9384,4.9286,4.9292,4.9296,4.9298,4.9593,4.9596,0,0,0,0,0,0,4.8974,4.899,4.9151,4.9157,4.9039,4.9107,4.9118,4.9159,4.9207,4.9211,4.9163,4.9158,4.9248,4.9258,4.9269,4.94,4.9293,4.9299,4.9303,4.9589,4.9593,4.9597,0,0,0,0,0,0,4.897,4.8989,4.9148,4.9073,4.9092,4.9115,4.9161,4.9162,4.919,4.9216,4.9219,4.9187,4.9245,4.9259,4.9349,4.9403,4.9302,4.9308,4.9584,4.959,4.9595,4.9665,0,0,0,0,0,0,4.8964,4.8988,4.9032,4.9075,4.9097,4.9229,4.9164,4.9167,4.9202,4.9196,4.9239,4.9243,4.9244,4.9339,4.9356,4.941,4.9314,4.958,4.9587,4.9594,4.9658,4.9673,4.9685,0,0,0,0,0,4.8956,4.9047,4.9034,4.9054,4.9153,4.9232,4.9244,4.9245,4.9207,4.925,4.9266,4.9242,4.9394,4.9348,4.9367,4.9425,4.9576,4.9585,4.9593,4.9652,4.967,4.9685,0,0,0,0,0,0,4.9008,4.9052,4.9039,4.9147,4.9186,4.9225,4.928,4.9263,4.9313,4.9305,4.9302,4.9312,4.9404,4.9423,4.9371,4.9533,4.9479,4.9492,4.9518,4.9535,4.9548,4.9541,4.9319,0,0,0,0,0,4.9033,4.9096,4.913,4.9222,4.9242,4.9258,4.9292,4.9289,4.9329,4.9345,4.9368,4.9406,4.9462,4.9499,4.9552,4.966,4.9668,4.9709,4.9722,4.9733,4.9744,4.9801,4.9819,4.9625,4.9625,4.9625,0,0,4.9083,4.9115,4.9155,4.9233,4.9263,4.9326,4.9272,4.9341,4.9387,4.9355,4.9441,4.9459,4.9501,4.96,4.9645,4.9619,4.9799,4.9743,4.9752,4.9757,4.9811,4.9829,4.9846,4.9631,4.963,4.9629,0,0,4.9208,4.9239,4.9319,4.935,4.9397,4.9406,4.9425,4.9466,4.9477,4.9564,4.9541,4.9594,4.9691,4.9722,4.975,4.9884,4.9863,4.9901,4.9971,5.0026,5.0042,5.0055,5.0102,5.0119,4.9912,4.9912,4.9912,0,4.9265,4.9362,4.9361,4.9433,4.9467,4.9441,4.952,4.955,4.961,4.9634,4.9603,4.9724,4.9751,4.9856,4.9888,4.9912,4.9932,4.9897,5.004,5.0053,5.0066,5.0111,5.0129,4.9916,4.9916,4.9915,4.9915,0,4.9428,4.9495,4.9553,4.9615,4.9655,4.973,4.9739,4.9779,4.9771,4.9783,4.9871,4.9901,4.996,4.9984,4.9977,5.0088,5.007,5.004,4.9986,5.0089,5.0131,5.0148,4.9923,4.9921,4.992,4.9919,0,0,4.959,4.965,4.9671,4.9698,4.9747,4.9797,4.9869,4.9928,4.9962,5.0004,5.0064,5.0146,5.0118,5.015,5.0146,5.0194,5.0297,5.0158,5.0159,5.0183,5.042,5.0443,5.0463,5.0283,5.0286,5.0289,5.0416,0,4.9719,4.9848,4.9849,4.9967,5.0028,5.0003,5.0066,5.0101,5.0113,5.0164,5.0177,5.0235,5.0194,5.0213,5.026,5.0275,5.0345,5.0266,5.0337,5.034,5.0328,5.0485,5.051,5.0628,5.0433,5.0436,5.0438,0,4.9886,4.9936,5.006,5.0099,5.0124,5.0181,5.0234,5.0284,5.0322,5.0327,5.0363,5.035,5.0421,5.0364,5.0461,5.0407,5.0436,5.0447,5.0452,5.0459,5.0395,5.0496,5.0666,5.0684,5.0464,5.0462,5.046,0,4.9992,5.0089,5.0176,5.0199,5.0247,5.0287,5.0308,5.0343,5.0377,5.0423,5.0445,5.0497,5.0526,5.0565,5.0566,5.0525,5.0664,5.0607,5.0668,5.0669,5.07,5.0698,5.0877,5.0718,5.0717,5.0717,5.0717,0,5.0136,5.0213,5.0224,5.0278,5.0362,5.0361,5.0444,5.0461,5.0492,5.0547,5.0527,5.0578,5.0577,5.0628,5.0629,5.0708,5.0721,5.0726,5.0725,5.0728,5.0727,5.0747,5.0739,5.0722,5.0721,5.072,5.0719,0,5.0269,5.0279,5.0372,5.0409,5.042,5.0481,5.0511,5.0561,5.057,5.064,5.0656,5.067,5.0729,5.0734,5.0802,5.0803,5.0899,5.0889,5.0887,5.0885,5.0946,5.0941,5.1145,5.1171,5.0995,5.0996,5.0998,0,5.036,5.0419,5.0462,5.0498,5.0522,5.058,5.0616,5.0615,5.0652,5.0699,5.0743,5.08,5.0847,5.0942,5.0957,5.1008,5.1,5.1068,5.1007,5.1008,5.1,5.0997,5.1003,5.108,5.1082,5.1083,5.1084,0,5.0521,5.0523,5.0576,5.0631,5.0674,5.0716,5.0756,5.0785,5.0789,5.0832,5.0893,5.0929,5.0998,5.1055,5.1105,5.1124,5.1105,5.1103,5.112,5.1124,5.112,5.1123,5.0919,5.1099,5.1097,5.1096,5.1095,5.1095,5.0636,5.0687,5.0725,5.0784,5.0814,5.0851,5.0899,5.0915,5.0967,5.1025,5.102,5.1087,5.1121,5.1187,5.1209,5.126,5.1237,5.1262,5.1268,5.1274,5.1281,5.1112,5.1269,5.1269,5.1268,5.1268,5.1268,0,5.0796,5.0819,5.0873,5.093,5.0975,5.0954,5.0996,5.1035,5.1095,5.113,5.1176,5.1245,5.1299,5.1318,5.1371,5.1407,5.14,5.1421,5.1419,5.1423,5.1298,5.1279,5.1427,5.1427,5.1426,5.1426,5.1426,5.1426,5.0885,5.0969,5.0975,5.1073,5.1095,5.1162,5.1188,5.1221,5.1248,5.1327,5.1373,5.1385,5.1413,5.1467,5.1515,5.1519,5.1539,5.1564,5.1565,5.1448,5.1432,5.1417,5.1398,5.1569,5.1569,5.1685,5.1686,5.1687]}]]